Location: Dam Number 52
(32.0971°N, 97.0336°W)
Time: 12:20:57
(UTC+00:00)

Daily predictions for brighter satellites

Satellite Brightness Start Highest point End
(mag) Time Altitude Azimuth Time Altitude Azimuth Time Altitude Azimuth
ASTRO E2 3.5 12:02:07 21° WSW 12:03:53 34° SSW 12:07:13 10° SE
ERS-2 1.9 12:01:34 10° NNE 12:04:29 66° ESE 12:07:24 10° S
Cosmos 1634 Rocket 4.2 12:00:52 10° S 12:07:01 77° E 12:13:13 10° N
SKYMED 2 3.5 12:02:48 10° S 12:07:05 62° W 12:11:23 10° NNW
Nadezhda 4 Rocket 4.0 12:03:16 10° NNW 12:09:15 58° W 12:15:18 10° S
Milstar 3 Cent rocket 3.3 12:05:31 16° W 12:09:44 48° S 12:18:32 10° ESE
Cosmos 1624 Rocket 3.9 12:04:48 10° NNW 12:09:57 69° WSW 12:15:07 10° S
Cosmos 1932 4.5 12:08:48 10° NNW 12:15:07 88° ENE 12:21:18 10° SSE
COSMOS 2428 2.7 12:09:55 10° SSW 12:15:32 65° WNW 12:21:13 10° NNE
Cosmos 2333 Rocket 3.5 12:13:29 14° W 12:16:09 19° WNW 12:20:11 10° NNW
JB-3 4.3 12:13:19 10° S 12:17:21 71° WSW 12:21:25 10° NNW
NOSS 0 Rocket 4.2 12:16:05 10° SSW 12:22:18 78° ESE 12:28:33 10° NNE
SMAP 4.1 12:20:38 10° NNE 12:25:10 50° E 12:29:39 10° S
Cosmos 1076 Rocket 4.4 12:25:32 10° S 12:29:41 53° E 12:33:52 10° NNE
Lacrosse 5 rocket 2.2 12:26:30 10° WSW 12:30:13 30° NW 12:34:04 10° NNE
SL-08 R/B 3.6 12:26:31 10° S 12:31:03 45° W 12:35:33 10° NNW
Cosmos 1933 3.3 12:27:19 10° NNW 12:31:13 61° W 12:35:06 10° S
SJ-7 4.3 12:27:19 10° N 12:31:24 80° WNW 12:35:29 10° SSW
Cosmos 1844 Rocket 3.9 12:29:06 10° NW 12:33:19 22° W 12:37:31 10° SSW
Cosmos 1544 2.8 12:30:32 10° S 12:33:41 83° E 12:36:54 10° N
Cosmos 1953 Rocket 3.6 12:30:49 10° SSW 12:35:11 63° W 12:39:37 10° N
Cosmos 2279 Rocket 4.1 12:29:05 10° S 12:35:19 85° E 12:41:36 10° N
ATLAS 3B R/B 4.5 12:35:13 10° NW 12:37:04 11° NW 12:38:56 10° NNW
COSMOS 2455 3.3 12:31:32 10° NW 12:37:08 41° WSW 12:42:41 10° S
H-2A R/B 3.5 12:35:37 10° NW 12:37:53 13° WNW 12:40:10 10° W
Meteor 2-3 Rocket 4.3 12:32:58 10° SW 12:37:57 33° WNW 12:42:56 10° NNW
SJ-11-01 4.3 12:33:23 10° N 12:37:57 56° WNW 12:42:31 10° SSW
Cosmos-2242 4.3 12:35:15 10° NW 12:38:15 19° W 12:41:14 10° SW
Cosmos 1515 4.0 12:35:15 10° N 12:38:50 65° E 12:42:24 10° SSE
CZ-2D R/B 3.7 12:40:04 10° N 12:43:26 36° WNW 12:46:47 10° SW
Cosmos 2278 Rocket 3.8 12:41:21 10° N 12:46:27 34° ENE 12:51:32 10° SE
SeaSat 1 4.3 12:42:36 10° ESE 12:46:43 28° ENE 12:50:50 10° N
Cosmos 2237 Rocket 2.3 12:42:00 10° SSW 12:47:40 86° ESE 12:53:21 10° NNE
Cosmos 1862 3.8 12:44:16 10° SSW 12:47:47 34° W 12:51:18 10° NNW
USA 215 4.3 12:43:02 10° NNE 12:48:09 25° NNW 12:53:16 10° W
Cosmos 2221 2.4 12:44:15 10° NNW 12:48:28 70° W 12:52:41 10° S
NOSS 2-1 (D) 4.4 23:37:00 10° NNW 23:42:05 84° ENE 23:49:33 10° SSE
Meteor 1-31 Rocket 3.2 23:41:49 10° SE 23:45:12 36° ENE 23:48:37 10° N
Nadezhda 4 Rocket 4.3 23:41:44 10° SSE 23:47:36 47° E 23:53:25 10° NNE
Cosmos 2263 Rocket 2.5 23:43:56 10° SSW 23:49:26 69° WNW 23:55:00 10° NNE
ATLAS 5 CENTAUR R/B 4.2 23:45:41 10° NW 23:51:04 39° WSW 23:57:25 10° S
Cosmos 1844 Rocket 4.0 23:47:18 10° SE 23:51:04 19° E 23:54:51 10° ENE
ERS-2 3.7 23:48:44 10° SSW 23:51:24 32° W 23:54:06 10° NNW
Cosmos 1544 2.7 23:49:49 10° N 23:53:04 87° E 23:56:17 10° S
Tiangong -1.6 23:51:10 10° NW 23:54:12 41° NNE 23:57:13 10° E
Cosmos 1782 4.3 23:52:34 10° SE 23:55:05 17° E 23:57:36 10° NE
